Location: Atbuku
(36.4936°N, 30.4362°E)
Time: 18:06:41
(UTC+00:00)

ARIANE 5 R/B - Pass Details

Date: 11 December 2025
Orbit: 747 x 792 km, 98.8° (Epoch: 15 January)

Event Time Altitude Azimuth Distance (km) Brightness Sun altitude
Rises 15:33:38 0° 162° (SSE) 3,194 5.8 -10.1°
Reaches altitude 10° 15:35:54 10° 161° (SSE) 2,279 5.0 -10.5°
Maximum altitude 15:40:54 79° 75° (ENE) 783 2.4 -11.4°
Drops below altitude 10° 15:46:01 10° 350° (N) 2,323 4.9 -12.4°
Sets 15:48:21 0° 349° (NNW) 3,261 5.7 -12.8°
